User: anonymous   Login
Location: Mentone
(34.5413°N, 85.5351°W)
Time: 20:24:06
(UTC-05:00)
Language:

Tiros 1 despin weight - Orbit

View from above orbital plane
View from above orbital plane
View from above satellite
View from above satellite

Ground track
Ground track

The orbit data is extracted from the following two-line orbital elements,

1 00115U 60002D   15215.83102127  .00000590  00000-0  10002-3 0  9993
2 00115 048.1658 185.6926 0035969 330.1154 029.7704 14.82232866948818
Epoch (UTC): 03 August 2015 19:56:40
Eccentricity: 0.0035969
inclination: 48.1658°
perigee height: 597 km
apogee height: 647 km
right ascension of ascending node: 185.6926°
argument of perigee: 330.1154°
revolutions per day: 14.82232866
mean anomaly at epoch: 29.7704°
orbit number at epoch: 94881

The dashed part of the orbit path shows where the satellite is in the earth's shadow,  

DLR